Location: Flensburg
(54.6357°N, 9.5142°E)
Time: 18:41:01
(UTC+02:00)

ISS - Pass Details

Date: 10 February 2018
Orbit: 402 x 406 km, 51.6° (Epoch: 20 June)

Event Time Altitude Azimuth Distance (km) Brightness Sun altitude
Rises 18:30:15 0° 276° (W) 2,322 1.7 -10.7°
Reaches altitude 10° 18:32:38 10° 259° (W) 1,459 0.6 -11.0°
Maximum altitude 18:35:10 21° 209° (SSW) 973 -1.4 -11.4°
Drops below altitude 10° 18:37:42 10° 158° (SSE) 1,455 -1.2 -11.8°
Enters shadow 18:39:25 - 144° (SE) 2,064 -0.5 -12.0°
